GIA88 WIII-EHAM

Flight info

Callsign GIA88
Flight time N/A
Altitude 30000
Route DOLTA A585 PLB G579 VJB A457 TEPUS Y506 VPG Y337 GIVAL P628 VATLA/N0512F320 P628 DUDIK W138 KKJ J1 MEMID L760 DPN J24 MUPID/N0497F340 J24 ASARI A466 SULOM T400 AKBER J121 INDEK L509 NONIB J139 HANGU L509 LAJAK DCT 3403N06952E 3425N06902E 3532N06818E DCT KHOLM M875 AMDAR/K0911F340 M875 INDUD Z777 MANAT/N0491F340 R226 AKRAM A477 BABUM A909 TUGTA B701 KRS B143 METKA L88 RASAM/N0490F360 N199 EDATA M11 REBLO UT165 KAR UW27 NIVLA UT309 ERZ UL615 SIV UL333 BAG UW75 DEREL UL602 MAKOL DCT DEGET DCT NORAH/N0485F380 DCT PATAK DCT KATQA DCT VARIK DCT KATCE DCT NORKU
Aircraft B77W/H-SDE1E2E3FGHIJ2J3J4J5M1RWXY/LB1D1

Departure

Time N/A
Airport Soekarno-Hatta International Airport (WIII)

Arrival

Time 2026-05-08 05:53
Airport Amsterdam Airport Schiphol (EHAM)
Time Latitude Longitude Altitude Speed Heading
2026-05-08 03:44 45.17920 23.89878 36077 ft 435 kts 303°
2026-05-08 03:45 45.21498 23.83032 36086 ft 436 kts 303°
2026-05-08 03:45 45.25103 23.76114 36087 ft 437 kts 303°
2026-05-08 03:46 45.28714 23.69168 36078 ft 436 kts 303°
2026-05-08 03:46 45.32309 23.62241 36086 ft 435 kts 303°
2026-05-08 03:47 45.35878 23.55345 36070 ft 436 kts 303°
2026-05-08 03:47 45.39472 23.48383 36073 ft 436 kts 303°
2026-05-08 03:48 45.43064 23.41406 36082 ft 438 kts 302°
2026-05-08 03:48 45.46656 23.34413 36091 ft 438 kts 302°
2026-05-08 03:49 45.50223 23.27454 36080 ft 437 kts 302°
2026-05-08 03:49 45.53803 23.20450 36079 ft 437 kts 302°
2026-05-08 03:50 45.57386 23.13426 36076 ft 437 kts 302°
2026-05-08 03:50 45.60932 23.06454 36074 ft 437 kts 302°
2026-05-08 03:51 45.64498 22.99424 36066 ft 438 kts 302°
2026-05-08 03:51 45.68079 22.92351 36072 ft 438 kts 302°
2026-05-08 03:52 45.71642 22.85292 36062 ft 437 kts 302°
2026-05-08 03:52 45.75195 22.78240 36073 ft 437 kts 302°
2026-05-08 03:53 45.78729 22.71203 36059 ft 438 kts 302°
2026-05-08 03:53 45.82283 22.64111 36066 ft 438 kts 302°
2026-05-08 03:54 45.85837 22.57000 36062 ft 438 kts 302°
2026-05-08 03:54 45.89362 22.49934 36057 ft 438 kts 302°
2026-05-08 03:55 45.92898 22.42822 36058 ft 438 kts 301°
2026-05-08 03:55 45.96425 22.35712 36062 ft 439 kts 301°
2026-05-08 03:56 45.99977 22.28535 36061 ft 439 kts 301°
2026-05-08 03:56 46.03513 22.21369 36056 ft 440 kts 301°
2026-05-08 03:57 46.07027 22.14232 36053 ft 440 kts 301°
2026-05-08 03:57 46.10562 22.07035 36058 ft 440 kts 301°
2026-05-08 03:58 46.14093 21.99827 36059 ft 440 kts 301°
2026-05-08 03:58 46.17597 21.92654 36057 ft 441 kts 301°
2026-05-08 03:59 46.21122 21.85421 36058 ft 440 kts 301°
2026-05-08 03:59 46.24638 21.78185 36051 ft 440 kts 301°
2026-05-08 04:00 46.28154 21.70934 36055 ft 440 kts 301°
2026-05-08 04:00 46.31643 21.63720 36056 ft 441 kts 301°
2026-05-08 04:01 46.35150 21.56447 36053 ft 441 kts 301°
2026-05-08 04:01 46.38656 21.49158 36054 ft 441 kts 301°
2026-05-08 04:02 46.42154 21.41866 36060 ft 440 kts 300°
2026-05-08 04:02 46.45622 21.34621 36068 ft 440 kts 300°
2026-05-08 04:03 46.49261 21.27456 36066 ft 444 kts 306°
2026-05-08 04:03 46.56041 21.18155 36053 ft 450 kts 314°
2026-05-08 04:04 46.60785 21.12222 36055 ft 450 kts 314°
2026-05-08 04:04 46.65487 21.06291 36055 ft 450 kts 314°
2026-05-08 04:05 46.70209 21.00285 36054 ft 451 kts 314°
2026-05-08 04:05 46.74925 20.94257 36053 ft 451 kts 314°
2026-05-08 04:06 46.79611 20.88251 36056 ft 452 kts 314°
2026-05-08 04:06 46.84328 20.82192 36052 ft 452 kts 314°
2026-05-08 04:07 46.89048 20.76117 36056 ft 452 kts 314°
2026-05-08 04:07 46.93771 20.70021 36058 ft 453 kts 313°
2026-05-08 04:08 46.98464 20.63951 36055 ft 453 kts 313°
2026-05-08 04:08 47.03187 20.57826 36052 ft 453 kts 313°
2026-05-08 04:09 47.07910 20.51688 36052 ft 453 kts 313°
2026-05-08 04:09 47.12633 20.45532 36051 ft 454 kts 313°
2026-05-08 04:10 47.17324 20.39403 36050 ft 455 kts 313°
2026-05-08 04:10 47.22051 20.33214 36049 ft 455 kts 313°
2026-05-08 04:11 47.26770 20.27018 36055 ft 455 kts 313°
2026-05-08 04:11 47.31493 20.20801 36050 ft 455 kts 313°
2026-05-08 04:12 47.36181 20.14616 36051 ft 456 kts 313°
2026-05-08 04:12 47.40911 20.08358 36034 ft 457 kts 313°
2026-05-08 04:13 47.45639 20.02088 36056 ft 457 kts 313°
2026-05-08 04:13 47.50367 19.95802 36061 ft 458 kts 313°
2026-05-08 04:14 47.55070 19.89533 36046 ft 458 kts 313°
2026-05-08 04:14 47.59811 19.83198 36052 ft 459 kts 313°
2026-05-08 04:15 47.64482 19.76766 36044 ft 457 kts 310°
2026-05-08 04:15 47.68963 19.70083 36049 ft 457 kts 310°
2026-05-08 04:16 47.73408 19.63407 36046 ft 458 kts 310°
2026-05-08 04:16 47.77907 19.56707 36049 ft 458 kts 310°
2026-05-08 04:17 47.82414 19.50009 36053 ft 458 kts 310°
2026-05-08 04:17 47.86920 19.43298 36056 ft 458 kts 310°
2026-05-08 04:18 47.91386 19.36626 36053 ft 458 kts 310°
2026-05-08 04:18 47.95883 19.29888 36053 ft 458 kts 310°
2026-05-08 04:19 48.00374 19.23141 36050 ft 458 kts 310°
2026-05-08 04:19 48.04831 19.16431 36053 ft 458 kts 310°
2026-05-08 04:20 48.09106 19.09412 36056 ft 455 kts 304°
2026-05-08 04:20 48.12978 19.01918 36053 ft 455 kts 303°
2026-05-08 04:21 48.16822 18.94384 36056 ft 455 kts 303°
2026-05-08 04:21 48.20656 18.86907 36061 ft 456 kts 303°
2026-05-08 04:22 48.24526 18.79378 36057 ft 456 kts 303°
2026-05-08 04:22 48.28398 18.71833 36054 ft 457 kts 303°
2026-05-08 04:23 48.32248 18.64310 36058 ft 457 kts 303°
2026-05-08 04:23 48.36117 18.56728 36054 ft 457 kts 303°
2026-05-08 04:24 48.39978 18.49139 36061 ft 457 kts 303°
2026-05-08 04:24 48.43842 18.41523 36057 ft 458 kts 303°
2026-05-08 04:25 48.47678 18.33940 36059 ft 458 kts 303°
2026-05-08 04:25 48.51533 18.26298 36050 ft 458 kts 303°
2026-05-08 04:26 48.55387 18.18639 36055 ft 458 kts 303°
2026-05-08 04:26 48.59236 18.10965 36049 ft 459 kts 303°
2026-05-08 04:27 48.63061 18.03317 36050 ft 459 kts 303°
2026-05-08 04:27 48.66899 17.95623 36050 ft 459 kts 303°
2026-05-08 04:28 48.70732 17.87915 36055 ft 458 kts 303°
2026-05-08 04:28 48.74559 17.80200 36042 ft 458 kts 303°
2026-05-08 04:29 48.78381 17.72470 36054 ft 458 kts 303°
2026-05-08 04:29 48.82174 17.64776 36054 ft 460 kts 302°
2026-05-08 04:30 48.86002 17.56988 36059 ft 461 kts 302°
2026-05-08 04:30 48.89870 17.49094 36063 ft 470 kts 302°
2026-05-08 04:31 48.93795 17.41064 36057 ft 474 kts 302°
2026-05-08 04:31 48.97691 17.33078 36055 ft 472 kts 302°
2026-05-08 04:32 49.01501 17.24956 36043 ft 469 kts 297°
2026-05-08 04:32 49.04427 17.16154 36068 ft 465 kts 290°
2026-05-08 04:33 49.06989 17.07098 36058 ft 465 kts 289°
2026-05-08 04:33 49.09534 16.98089 36059 ft 465 kts 289°
2026-05-08 04:34 49.12108 16.89040 36075 ft 465 kts 289°
2026-05-08 04:34 49.14692 16.79967 36340 ft 467 kts 289°
2026-05-08 04:35 49.15984 16.75424 36694 ft 466 kts 289°
2026-05-08 04:35 49.17270 16.70896 37055 ft 464 kts 289°
2026-05-08 04:35 49.18535 16.66430 37382 ft 463 kts 289°
2026-05-08 04:35 49.19812 16.61911 37675 ft 463 kts 289°
2026-05-08 04:36 49.21090 16.57380 37920 ft 464 kts 289°
2026-05-08 04:36 49.22366 16.52843 38005 ft 465 kts 289°
2026-05-08 04:36 49.24917 16.43753 38074 ft 466 kts 289°
2026-05-08 04:37 49.27472 16.34616 38078 ft 466 kts 289°
2026-05-08 04:37 49.30000 16.25542 38082 ft 466 kts 289°
2026-05-08 04:38 49.32537 16.16398 38079 ft 467 kts 289°
2026-05-08 04:38 49.35072 16.07222 38080 ft 468 kts 289°
2026-05-08 04:39 49.37606 15.98017 38070 ft 469 kts 289°
2026-05-08 04:39 49.40121 15.88847 38072 ft 470 kts 289°
2026-05-08 04:40 49.42647 15.79600 38083 ft 470 kts 288°
2026-05-08 04:40 49.45166 15.70341 38091 ft 470 kts 288°
2026-05-08 04:41 49.47665 15.61120 38090 ft 471 kts 288°
2026-05-08 04:41 49.50176 15.51814 38090 ft 471 kts 288°
2026-05-08 04:42 49.52679 15.42505 38091 ft 470 kts 288°
2026-05-08 04:42 49.55168 15.33214 38091 ft 469 kts 288°
2026-05-08 04:43 49.57627 15.23993 38088 ft 468 kts 288°
2026-05-08 04:43 49.60092 15.14713 38094 ft 468 kts 288°
2026-05-08 04:44 49.62546 15.05435 38091 ft 467 kts 288°
2026-05-08 04:44 49.64993 14.96148 38093 ft 467 kts 288°
2026-05-08 04:45 49.67413 14.86928 38095 ft 466 kts 288°
2026-05-08 04:45 49.69840 14.77643 38088 ft 466 kts 288°
2026-05-08 04:46 49.72256 14.68363 38090 ft 466 kts 288°
2026-05-08 04:46 49.74663 14.59077 38092 ft 465 kts 287°
2026-05-08 04:47 49.77062 14.49786 38091 ft 465 kts 287°
2026-05-08 04:47 49.79439 14.40543 38087 ft 465 kts 287°
2026-05-08 04:48 49.81821 14.31240 38102 ft 465 kts 287°
2026-05-08 04:48 49.84199 14.21919 38107 ft 465 kts 287°
2026-05-08 04:49 49.86568 14.12593 38093 ft 465 kts 287°
2026-05-08 04:49 49.88911 14.03327 38100 ft 465 kts 287°
2026-05-08 04:50 49.91266 13.93980 38100 ft 465 kts 287°
2026-05-08 04:50 49.93615 13.84614 38099 ft 466 kts 287°
2026-05-08 04:51 49.95560 13.76831 38098 ft 466 kts 287°
2026-05-08 04:51 49.98275 13.65917 38099 ft 466 kts 287°
2026-05-08 04:52 50.00228 13.58038 38097 ft 466 kts 287°
2026-05-08 04:52 50.02539 13.48677 38097 ft 467 kts 287°
2026-05-08 04:53 50.04857 13.39249 38095 ft 467 kts 287°
2026-05-08 04:53 50.07538 13.28291 38091 ft 466 kts 287°
2026-05-08 04:54 50.09448 13.20450 38088 ft 467 kts 287°
2026-05-08 04:54 50.11745 13.10982 38080 ft 467 kts 287°
2026-05-08 04:55 50.14038 13.01492 38075 ft 468 kts 287°
2026-05-08 04:55 50.16699 12.90430 38081 ft 469 kts 287°
2026-05-08 04:56 50.18609 12.82451 38076 ft 469 kts 287°
2026-05-08 04:56 50.20872 12.72963 38087 ft 470 kts 287°
2026-05-08 04:57 50.23144 12.63392 38090 ft 471 kts 287°
2026-05-08 04:57 50.25779 12.52242 38091 ft 471 kts 287°
2026-05-08 04:58 50.27681 12.44205 38098 ft 471 kts 288°
2026-05-08 04:58 50.30653 12.35086 38107 ft 477 kts 298°
2026-05-08 04:59 50.34572 12.26634 38107 ft 481 kts 304°
2026-05-08 04:59 50.39352 12.17025 38103 ft 481 kts 304°
2026-05-08 05:00 50.42759 12.10118 38102 ft 481 kts 304°
2026-05-08 05:00 50.46819 12.01783 38107 ft 482 kts 303°
2026-05-08 05:01 50.50883 11.93379 38108 ft 483 kts 303°
2026-05-08 05:01 50.54932 11.84976 38111 ft 482 kts 303°
2026-05-08 05:02 50.58951 11.76612 38121 ft 482 kts 303°
2026-05-08 05:02 50.62992 11.68177 38124 ft 483 kts 303°
2026-05-08 05:03 50.67037 11.59709 38128 ft 483 kts 303°
2026-05-08 05:03 50.71073 11.51233 38136 ft 483 kts 303°
2026-05-08 05:04 50.75074 11.42802 38136 ft 483 kts 303°
2026-05-08 05:04 50.79095 11.34300 38131 ft 483 kts 303°
2026-05-08 05:05 50.83114 11.25775 38130 ft 483 kts 303°
2026-05-08 05:05 50.87122 11.17245 38131 ft 483 kts 303°
2026-05-08 05:06 50.91095 11.08763 38130 ft 483 kts 303°
2026-05-08 05:06 50.95086 11.00215 38126 ft 482 kts 303°
2026-05-08 05:07 50.99064 10.91665 38138 ft 482 kts 303°
2026-05-08 05:07 51.03040 10.83093 38133 ft 482 kts 303°
2026-05-08 05:08 51.06975 10.74581 38139 ft 481 kts 303°
2026-05-08 05:08 51.10924 10.66009 38144 ft 480 kts 303°
2026-05-08 05:09 51.14867 10.57421 38127 ft 480 kts 303°
2026-05-08 05:09 51.18773 10.48887 38129 ft 480 kts 303°
2026-05-08 05:10 51.24563 10.36083 38137 ft 479 kts 301°
2026-05-08 05:11 51.27733 10.26797 38154 ft 476 kts 294°
2026-05-08 05:11 51.30566 10.17323 38136 ft 476 kts 293°
2026-05-08 05:12 51.33415 10.07770 38139 ft 476 kts 293°
2026-05-08 05:12 51.36286 9.98228 38136 ft 476 kts 294°
2026-05-08 05:13 51.39159 9.88693 38137 ft 476 kts 294°
2026-05-08 05:13 51.42011 9.79204 38133 ft 476 kts 293°
2026-05-08 05:14 51.44873 9.69635 38148 ft 476 kts 293°
2026-05-08 05:14 51.47724 9.60066 38053 ft 473 kts 294°
2026-05-08 05:15 51.50528 9.50617 38129 ft 467 kts 294°
2026-05-08 05:15 51.53299 9.41237 38138 ft 469 kts 294°
2026-05-08 05:16 51.56094 9.31740 38132 ft 470 kts 294°
2026-05-08 05:16 51.58883 9.22228 38132 ft 470 kts 294°
2026-05-08 05:17 51.61662 9.12711 38130 ft 470 kts 294°
2026-05-08 05:17 51.64413 9.03250 38132 ft 470 kts 293°
2026-05-08 05:18 51.67178 8.93708 38133 ft 470 kts 293°
2026-05-08 05:18 51.69934 8.84156 38129 ft 470 kts 293°
2026-05-08 05:19 51.72663 8.74659 38131 ft 470 kts 293°
2026-05-08 05:19 51.75403 8.65087 38130 ft 470 kts 293°
2026-05-08 05:20 51.78135 8.55502 38132 ft 470 kts 293°
2026-05-08 05:20 51.80859 8.45906 38129 ft 470 kts 293°
2026-05-08 05:21 51.83559 8.36358 38127 ft 470 kts 293°
2026-05-08 05:21 51.86267 8.26740 38126 ft 470 kts 293°
2026-05-08 05:22 51.88968 8.17108 38128 ft 470 kts 292°
2026-05-08 05:22 51.91662 8.07462 38127 ft 470 kts 292°
2026-05-08 05:23 51.94329 7.97874 38129 ft 470 kts 292°
2026-05-08 05:23 51.97006 7.88208 38128 ft 470 kts 292°
2026-05-08 05:24 51.99676 7.78529 38130 ft 470 kts 292°
2026-05-08 05:24 52.02321 7.68899 38132 ft 470 kts 292°
2026-05-08 05:25 52.04977 7.59191 38002 ft 472 kts 292°
2026-05-08 05:25 52.06315 7.54283 37319 ft 479 kts 292°
2026-05-08 05:25 52.07662 7.49330 36655 ft 476 kts 292°
2026-05-08 05:25 52.08993 7.44430 35921 ft 473 kts 292°
2026-05-08 05:26 52.10321 7.39533 35111 ft 472 kts 292°
2026-05-08 05:26 52.11642 7.34647 34291 ft 471 kts 292°
2026-05-08 05:26 52.12955 7.29781 33340 ft 470 kts 292°
2026-05-08 05:26 52.14249 7.24971 32354 ft 470 kts 292°
2026-05-08 05:27 52.15556 7.20109 31404 ft 468 kts 292°
2026-05-08 05:27 52.16858 7.15249 30524 ft 467 kts 292°
2026-05-08 05:27 52.18144 7.10446 29839 ft 460 kts 292°
2026-05-08 05:27 52.19416 7.05684 29115 ft 454 kts 292°
2026-05-08 05:28 52.20664 7.01002 28467 ft 448 kts 292°
2026-05-08 05:28 52.22016 6.96458 27893 ft 443 kts 300°
2026-05-08 05:28 52.23869 6.92483 27505 ft 441 kts 309°
2026-05-08 05:28 52.25877 6.88713 27021 ft 442 kts 309°
2026-05-08 05:29 52.27868 6.84952 26591 ft 441 kts 308°
2026-05-08 05:29 52.29832 6.81122 26152 ft 439 kts 308°
2026-05-08 05:29 52.31759 6.77268 25705 ft 436 kts 307°
2026-05-08 05:29 52.33662 6.73428 25270 ft 434 kts 307°
2026-05-08 05:30 52.35554 6.69608 24846 ft 431 kts 307°
2026-05-08 05:30 52.37439 6.65804 24409 ft 429 kts 307°
2026-05-08 05:30 52.39315 6.62017 23989 ft 427 kts 307°
2026-05-08 05:30 52.41177 6.58254 23529 ft 424 kts 307°
2026-05-08 05:31 52.43003 6.54558 23043 ft 421 kts 307°
2026-05-08 05:31 52.44837 6.50839 22603 ft 418 kts 307°
2026-05-08 05:31 52.46403 6.46890 22177 ft 414 kts 293°
2026-05-08 05:31 52.47199 6.42385 21764 ft 411 kts 276°
2026-05-08 05:32 52.47420 6.37733 21370 ft 409 kts 273°
2026-05-08 05:32 52.47607 6.33079 20942 ft 407 kts 274°
2026-05-08 05:32 52.47804 6.28462 20529 ft 405 kts 274°
2026-05-08 05:32 52.48013 6.23878 20131 ft 402 kts 274°
2026-05-08 05:33 52.48227 6.19368 19736 ft 401 kts 274°
2026-05-08 05:33 52.48447 6.14824 19332 ft 399 kts 274°
2026-05-08 05:33 52.48667 6.10307 18931 ft 397 kts 274°
2026-05-08 05:33 52.48885 6.05796 18520 ft 395 kts 274°
2026-05-08 05:34 52.49098 6.01313 18093 ft 393 kts 274°
2026-05-08 05:34 52.49309 5.96851 17663 ft 391 kts 274°
2026-05-08 05:34 52.49516 5.92414 17258 ft 389 kts 274°
2026-05-08 05:34 52.49721 5.88006 16861 ft 387 kts 274°
2026-05-08 05:35 52.49923 5.83608 16466 ft 386 kts 274°
2026-05-08 05:35 52.50124 5.79225 16102 ft 382 kts 274°
2026-05-08 05:35 52.50318 5.74973 15706 ft 376 kts 274°
2026-05-08 05:35 52.50510 5.70732 15326 ft 369 kts 274°
2026-05-08 05:36 52.50696 5.66569 14962 ft 363 kts 274°
2026-05-08 05:36 52.50877 5.62483 14597 ft 357 kts 274°
2026-05-08 05:36 52.50965 5.58471 14213 ft 345 kts 264°
2026-05-08 05:36 52.50355 5.54759 14046 ft 325 kts 244°
2026-05-08 05:37 52.49301 5.51679 13834 ft 300 kts 239°
2026-05-08 05:37 52.48226 5.48800 13628 ft 299 kts 238°
2026-05-08 05:37 52.47137 5.45915 13394 ft 296 kts 238°
2026-05-08 05:37 52.46064 5.43062 13210 ft 292 kts 238°
2026-05-08 05:38 52.45007 5.40239 13019 ft 289 kts 238°
2026-05-08 05:38 52.43961 5.37431 12844 ft 289 kts 238°
2026-05-08 05:38 52.42934 5.34668 12667 ft 289 kts 238°
2026-05-08 05:38 52.41887 5.31846 12501 ft 290 kts 238°
2026-05-08 05:39 52.40852 5.29056 12293 ft 290 kts 238°
2026-05-08 05:39 52.39806 5.26237 12123 ft 290 kts 238°
2026-05-08 05:39 52.38761 5.23421 11947 ft 289 kts 238°
2026-05-08 05:39 52.37719 5.20614 11756 ft 289 kts 238°
2026-05-08 05:40 52.36675 5.17805 11576 ft 289 kts 238°
2026-05-08 05:40 52.35631 5.15005 11392 ft 287 kts 238°
2026-05-08 05:40 52.34594 5.12224 11207 ft 287 kts 238°
2026-05-08 05:40 52.33661 5.09394 11026 ft 289 kts 250°
2026-05-08 05:41 52.33400 5.06150 10854 ft 286 kts 269°
2026-05-08 05:41 52.33415 5.02897 10686 ft 287 kts 269°
2026-05-08 05:41 52.33406 4.99621 10500 ft 288 kts 268°
2026-05-08 05:41 52.33387 4.96364 10322 ft 285 kts 268°
2026-05-08 05:42 52.33365 4.93150 10140 ft 280 kts 268°
2026-05-08 05:42 52.33341 4.89977 9855 ft 278 kts 268°
2026-05-08 05:42 52.33316 4.86874 9585 ft 276 kts 268°
2026-05-08 05:42 52.33291 4.83747 9326 ft 275 kts 268°
2026-05-08 05:43 52.33264 4.80622 9057 ft 275 kts 268°
2026-05-08 05:43 52.33238 4.77481 8799 ft 276 kts 268°
2026-05-08 05:43 52.33209 4.74333 8538 ft 277 kts 268°
2026-05-08 05:43 52.33180 4.71190 8276 ft 276 kts 268°
2026-05-08 05:44 52.33151 4.68075 8003 ft 273 kts 268°
2026-05-08 05:44 52.33120 4.64986 7754 ft 270 kts 268°
2026-05-08 05:44 52.33089 4.61968 7506 ft 268 kts 268°
2026-05-08 05:44 52.33057 4.58926 7255 ft 268 kts 268°
2026-05-08 05:45 52.33025 4.55877 6999 ft 268 kts 268°
2026-05-08 05:45 52.32994 4.52848 6749 ft 266 kts 268°
2026-05-08 05:45 52.32960 4.49822 6494 ft 266 kts 268°
2026-05-08 05:45 52.32926 4.46798 6229 ft 267 kts 268°
2026-05-08 05:46 52.32891 4.43765 5971 ft 266 kts 268°
2026-05-08 05:46 52.32615 4.40836 5689 ft 260 kts 245°
2026-05-08 05:46 52.31557 4.38567 5459 ft 256 kts 216°
2026-05-08 05:46 52.29981 4.37289 5234 ft 253 kts 193°
2026-05-08 05:47 52.28239 4.36942 5000 ft 251 kts 184°
2026-05-08 05:47 52.26499 4.36737 4791 ft 249 kts 184°
2026-05-08 05:47 52.24811 4.36873 4481 ft 241 kts 161°
2026-05-08 05:47 52.23427 4.38294 4281 ft 235 kts 133°
2026-05-08 05:48 52.22517 4.40470 4068 ft 232 kts 117°
2026-05-08 05:48 52.21826 4.42827 3875 ft 235 kts 115°
2026-05-08 05:48 52.21147 4.45248 3649 ft 233 kts 112°
2026-05-08 05:48 52.20830 4.47764 3408 ft 223 kts 90°
2026-05-08 05:49 52.20814 4.50275 3159 ft 220 kts 91°
2026-05-08 05:49 52.21008 4.52685 2878 ft 212 kts 66°
2026-05-08 05:49 52.21664 4.54792 2658 ft 208 kts 62°
2026-05-08 05:49 52.22396 4.56827 2387 ft 208 kts 59°
2026-05-08 05:50 52.23163 4.58821 2137 ft 206 kts 59°
2026-05-08 05:50 52.23919 4.60779 1909 ft 204 kts 59°
2026-05-08 05:50 52.24656 4.62688 1662 ft 197 kts 59°
2026-05-08 05:50 52.25363 4.64520 1350 ft 184 kts 59°
2026-05-08 05:51 52.25997 4.66161 1120 ft 159 kts 60°
2026-05-08 05:51 52.26547 4.67590 914 ft 143 kts 60°
2026-05-08 05:51 52.27074 4.68960 710 ft 140 kts 60°
2026-05-08 05:51 52.27589 4.70299 541 ft 142 kts 59°
2026-05-08 05:52 52.28111 4.71647 326 ft 138 kts 59°
2026-05-08 05:52 52.28621 4.72965 141 ft 138 kts 59°
2026-05-08 05:52 52.29118 4.74263 10 ft 130 kts 59°
2026-05-08 05:52 52.29542 4.75366 3 ft 92 kts 58°
2026-05-08 05:53 52.29783 4.75997 1 ft 45 kts 58°
2026-05-08 05:53 52.29944 4.76415 2 ft 41 kts 54°
2026-05-08 05:53 52.30116 4.76614 4 ft 22 kts 28°
2026-05-08 05:53 52.30253 4.76735 4 ft 22 kts 28°
2026-05-08 05:54 52.30350 4.76921 4 ft 22 kts 57°
2026-05-08 05:54 52.30431 4.77131 4 ft 22 kts 58°
2026-05-08 05:54 52.30509 4.77338 4 ft 22 kts 58°
2026-05-08 05:54 52.30595 4.77541 4 ft 22 kts 43°
2026-05-08 05:55 52.30739 4.77596 4 ft 22 kts
2026-05-08 05:55 52.30890 4.77610 4 ft 22 kts
2026-05-08 05:55 52.31041 4.77624 4 ft 22 kts
2026-05-08 05:55 52.31192 4.77637 4 ft 22 kts
2026-05-08 05:56 52.31343 4.77650 4 ft 22 kts
2026-05-08 05:56 52.31486 4.77596 4 ft 22 kts 319°
2026-05-08 05:56 52.31573 4.77403 4 ft 22 kts 285°
2026-05-08 05:56 52.31571 4.77156 4 ft 22 kts 266°
2026-05-08 05:57 52.31562 4.76909 4 ft 22 kts 266°
2026-05-08 05:57 52.31552 4.76663 4 ft 22 kts 266°
2026-05-08 05:57 52.31544 4.76416 4 ft 22 kts 267°
2026-05-08 05:57 52.31536 4.76168 4 ft 22 kts 267°
2026-05-08 05:58 52.31528 4.75921 4 ft 22 kts 266°
2026-05-08 05:58 52.31519 4.75674 4 ft 22 kts 266°
2026-05-08 05:58 52.31504 4.75482 4 ft 14 kts 239°
2026-05-08 05:58 52.31415 4.75444 4 ft 14 kts 178°
2026-05-08 05:59 52.31316 4.75450 4 ft 14 kts 176°
2026-05-08 05:59 52.31242 4.75460 4 ft 6 kts 166°
2026-05-08 05:59 52.31221 4.75517 4 ft 4 kts 100°
2026-05-08 05:59 52.31219 4.75562 4 ft 4 kts 89°
2026-05-08 06:00 52.31220 4.75576 4 ft 1 kts 88°
2026-05-08 06:00 52.31220 4.75580 4 ft 0 kts 88°